Regional Weather Roundup
Issued by NWS Portland, ME

Home | Current Version | Previous Version | Text Only | Print | Product List | Glossary On
Versions: 1 2 3 4 5 6 7 8 9 10 11 12 13 14 15 16 17 18 19 20 21 22 23 24 25 26 27 28 29 30 31 32 33 34 35 36 37 38 39 40 41 42 43 44 45 46 47 48 49 50
000
ASUS41 KGYX 220710
RWRGYX
WEATHER ROUNDUP FOR MAINE AND NEW HAMPSHIRE
NATIONAL WEATHER SERVICE GRAY ME
300 AM EDT SUN APR 22 2018

MEZ002-005-006-010-012-015-018-020-021-024-026-027-029-220800-
MAINE

CITY           SKY/WX    TMP DP  RH WIND       PRES   REMARKS
PORTLAND       FAIR      35  24  64 W7        30.28S
SANFORD        FAIR      26  24  92 W3        30.29S
BAR HARBOR     FAIR      31  26  82 CALM      30.24R
WISCASSET      FAIR      30  26  85 CALM      30.28R
ROCKLAND       FAIR      34  24  67 NW5       30.25S
FRYEBURG       FAIR      28  26  92 CALM      30.28R
LEWISTONAUBURN FAIR      31  26  82 N3        30.27S
AUGUSTA        FAIR      38  23  55 W6        30.25S
WATERVILLE     FAIR      35  23  61 CALM      30.23R
BANGOR         FAIR      32  22  66 CALM      30.23S
GREENVILLE       N/A     31  20  63 NW10      30.18R
MILLINOCKET    FAIR      30  21  69 CALM      30.21S
HOULTON        FAIR      26  23  88 CALM      30.16S
PRESQUE ISLE   FAIR      26  23  88 CALM      30.18S
FRENCHVILLE    FAIR      33  17  51 NW9       30.15S
CARIBOU        FAIR      33  18  53 NW8       30.16R
$$

NHZ002-005-008-009-011-012-014-220800-
NEW HAMPSHIRE

CITY           SKY/WX    TMP DP  RH WIND       PRES   REMARKS
PORTSMOUTH     CLEAR     38  25  60 W6        30.29R
ROCHESTER      FAIR      39  22  50 VRB5      30.28F
NASHUA         FAIR      34  24  67 W3        30.32S
MANCHESTER     FAIR      37  25  61 CALM      30.30S
CONCORD        FAIR      29  22  75 CALM      30.31S
LACONIA        FAIR      31  25  78 VRB3      30.30R
PLYMOUTH       FAIR      28  26  90 MISG      30.30S
BERLIN         FAIR      23  20  88 CALM      30.27R
WHITEFIELD     FAIR      24  21  88 CALM      30.29R
JAFFREY        FAIR      28  25  88 S3        30.31S
KEENE          FAIR      26  23  88 SW5       30.34S
LEBANON        FAIR      28  20  71 CALM      30.32R
MT WASHINGTON  PTCLDY    16  12  86 NW38G46     N/A  WCI  -6
$$

VTZ005-007-008-220800-
VERMONT

CITY           SKY/WX    TMP DP  RH WIND       PRES   REMARKS
ST JOHNSBURY     N/A     28  24  85 MISG      30.30R
MONTPELIER     FAIR      31  20  63 CALM      30.33S
BURLINGTON     FAIR      31  24  75 CALM      30.34R
$$

MAZ007-012-024-CTZ003-RIZ002-NYZ038-NYZ072-220800-
SOUTHERN NEW ENGLAND AND NY

CITY           SKY/WX    TMP DP  RH WIND       PRES   REMARKS
BOSTON         FAIR      45  20  36 W6        30.32S
WORCESTER      FAIR      36  18  48 W7        30.31S
NANTUCKET      FAIR      42  37  82 N10       30.29R
PROVIDENCE     FAIR      38  26  62 CALM      30.33S
HARTFORD       FAIR      42  21  43 NW7       30.34S
ALBANY         FAIR      35  19  52 CALM      30.37S
NEW YORK CITY  MOCLDY    49  22  34 NW6       30.37R
$$

ANZ081-ANZ082-ANZ150-NHZ014-MEZ023>029-220800-
COASTAL MARINE OBSERVATIONS

STATION/POSITION TIME  TEMP    WIND        PRES    WAVE
                       AIR SEA DIR/SP/G            HT/PER
                 (UTC) (F)     (DEG/KT/KT) (MB)    (FT/S)
MOUNT DESERT ROC 0700   41     280/ 10/ 11 1023.8R
MATINICUS ROCK   0700   42     280/ 13/ 13 1023.7R
ISLE OF SHOALS   0700   43     270/ 11/ 11 1025.5R
JEFFREYS LEDGE   0636      42                N/A     1/ 4
CASHES LEDGE BUO 0650   41 41              1024.6F   1/ 7
$$

.............KEY..............
   WCI - WIND CHILL
   TC  - TEMPERATURE IN CELSIUS
   VSB - VISIBILITY IN MILES
   HX  - HEAT INDEX
   FAIR- INDICATES FEW OR NO CLOUDS BELOW 12,000 FT, WITH NO
         SIGNIFICANT WEATHER AND/OR OBSTRUCTIONS TO VISIBILITY.





USA.gov is the U.S. government's official web portal to all federal, state and local government web resources and services.